Location: Newark
(7.0858°N, 171.3717°E)
Time: 15:08:36
(UTC+00:00)

Vanguard 3 - Pass Details

Date: 26 November 2020
Orbit: 508 x 3262 km, 33.4° (Epoch: 14 January)

Event Time Altitude Azimuth Distance (km) Brightness Sun altitude
Exits shadow 16:39:47 38° 314° (NW) 2,661 9.2 -26.4°
Maximum altitude 16:45:37 81° 37° (NE) 2,312 9.3 -25.0°
Drops below altitude 10° 17:03:44 10° 123° (ESE) 6,024 12.7 -20.8°
Sets 17:08:50 0° 124° (ESE) 7,184 13.4 -19.6°
